Wind_Speed
27 25 24 24 23 23 23 23 23 23 22 20 18 17 16 15 16 15 13 12 12 11 8 7 9 9 10 12 13 13 12 12 15 17 18 18 17 17 15 14 14 14 15 15 16 17 19 20 19 18 16 12 8 3 1 2 4 6 7 4 4 5
27 26 26 25 24 24 24 24 24 24 23 21 19 18 17 17 17 15 13 12 11 10 8 7 8 9 9 11 13 14 12 12 14 16 17 18 17 16 15 14 14 14 15 15 16 17 18 18 17 15 13 10 6 3 1 2 3 4 7 5 4 4
27 27 26 26 25 25 24 24 24 24 23 22 21 19 19 19 17 14 12 11 10 9 7 7 8 8 8 9 12 13 13 11 13 15 17 17 17 16 15 14 13 13 14 14 15 15 15 14 13 11 10 9 6 2 1 4 4 4 6 4 3 3
25 26 26 26 25 25 25 24 24 23 23 22 21 20 20 18 16 14 13 11 9 8 8 8 9 8 8 8 10 12 11 10 11 13 15 17 17 16 15 14 13 13 13 13 13 13 11 9 9 9 10 9 5 2 1 6 7 4 4 3 2 2
25 25 24 24 24 24 25 24 24 23 23 22 22 22 20 19 17 14 13 12 10 9 9 9 10 10 8 7 8 9 8 8 10 11 14 16 17 17 15 14 13 12 11 11 11 11 8 5 7 8 8 7 5 5 5 7 8 4 3 4 3 2
25 23 22 22 23 25 25 24 24 23 23 23 22 22 20 19 18 16 14 13 12 12 10 10 11 10 9 8 7 6 6 6 8 10 13 16 18 17 16 14 12 11 10 10 9 8 5 1 5 7 4 3 5 7 8 8 8 5 4 4 3 3
24 22 21 22 23 25 25 24 24 24 24 23 22 21 20 19 18 16 15 14 13 13 11 11 10 9 9 8 7 5 4 4 6 9 12 15 17 17 16 13 11 11 10 10 8 7 3 3 5 5 3 3 5 9 10 9 8 5 3 2 2 2
24 23 23 24 25 25 25 25 25 25 24 22 22 21 20 20 17 16 16 15 14 13 12 11 10 10 9 7 7 5 4 3 3 7 11 13 15 16 15 13 12 11 10 9 8 8 7 7 5 4 4 3 5 9 10 10 7 6 4 2 2 1
25 25 25 25 25 25 25 25 25 24 22 21 21 20 20 19 18 17 17 16 15 14 13 12 10 10 9 8 7 6 5 4 3 4 9 12 13 14 14 13 13 11 8 7 8 9 9 8 7 6 6 4 5 8 9 9 7 7 6 3 2 1
26 26 26 25 25 25 26 26 24 22 20 19 19 20 20 19 18 17 17 17 16 15 14 13 11 10 9 9 9 8 5 2 1 1 5 11 13 12 13 13 11 8 6 8 9 9 9 9 9 8 7 6 5 5 5 6 8 7 6 3 2 1
27 27 26 26 26 26 26 25 23 22 20 19 19 20 20 19 18 17 18 18 17 16 16 14 13 12 11 11 12 11 8 6 6 3 3 6 10 10 11 10 9 8 7 9 9 9 9 10 10 5 4 7 8 5 3 4 7 7 5 3 2 1
28 27 27 27 26 25 25 25 23 21 20 20 20 19 19 18 17 17 18 18 17 18 17 16 15 14 13 12 11 11 11 11 12 8 6 7 9 9 10 9 10 11 11 11 9 10 11 9 9 6 3 5 9 8 6 5 5 6 5 3 2 2
29 26 27 27 25 24 25 26 22 21 21 20 19 17 17 17 17 17 17 18 18 18 18 16 16 15 13 12 10 11 12 13 13 13 11 11 11 10 10 10 11 14 14 11 10 10 10 7 8 8 4 4 6 8 8 7 6 6 5 4 4 3
28 24 26 26 26 26 26 26 23 22 21 19 17 16 16 15 16 16 17 18 18 19 18 16 15 14 13 12 12 11 11 11 12 11 10 11 11 9 9 9 11 15 14 11 10 10 8 7 7 7 6 6 5 6 8 8 7 6 4 4 4 4
25 24 25 26 26 25 25 26 25 23 20 17 15 15 15 15 16 16 16 17 18 18 18 16 15 13 13 13 12 12 10 10 10 9 8 10 10 8 8 8 10 12 12 12 11 9 7 7 7 6 6 6 6 6 8 8 8 6 4 3 4 4
26 25 25 25 23 21 23 24 24 22 18 15 14 14 14 14 15 16 16 18 18 19 18 17 15 14 13 12 12 12 11 11 11 10 10 11 11 11 9 8 9 9 10 11 10 9 9 8 7 6 6 6 6 7 8 9 8 7 5 4 4 3
25 23 23 24 20 19 20 20 20 19 16 15 15 15 15 15 16 16 17 19 19 19 19 18 17 15 14 12 11 13 13 12 12 11 11 12 12 12 11 10 10 10 10 11 9 8 8 9 9 9 9 8 8 8 7 7 8 8 7 5 4 4
23 21 21 23 21 20 18 17 18 16 14 15 13 14 15 15 16 16 17 19 19 18 19 20 18 16 15 14 13 13 14 12 11 11 12 12 13 13 12 12 12 10 9 10 8 7 8 10 11 10 9 8 8 8 7 7 8 8 7 5 5 4
22 22 21 22 22 21 18 16 16 13 13 14 12 13 14 14 14 14 16 18 19 19 20 21 19 17 15 15 15 14 13 12 11 12 12 13 14 13 12 13 13 9 8 9 9 8 9 11 11 10 9 8 8 8 8 7 7 7 6 6 6 5
22 23 21 21 21 22 20 17 12 10 12 13 13 14 14 14 14 13 14 16 18 20 21 21 19 17 16 16 16 14 13 12 12 13 13 14 14 13 12 12 12 10 10 10 10 10 11 12 11 11 11 9 8 9 8 7 7 6 6 6 6 4
22 22 20 20 20 21 22 19 15 12 13 14 16 17 16 16 15 15 16 16 19 20 21 21 19 18 17 17 16 14 13 12 13 14 13 14 14 14 11 10 11 12 12 11 11 11 11 11 12 12 13 12 10 9 9 8 8 7 7 7 6 5
22 21 19 19 21 23 21 18 17 13 12 14 18 20 18 17 16 16 17 17 19 21 22 21 19 19 18 16 15 14 13 13 14 14 13 12 12 13 11 11 13 13 12 10 9 10 10 11 11 12 14 14 12 10 9 9 8 8 8 7 6 7
21 20 19 21 22 22 20 18 17 13 12 14 17 19 18 16 16 17 18 19 20 21 22 21 19 19 17 16 15 14 14 14 13 13 12 11 11 12 11 11 14 14 12 10 9 10 11 10 11 13 14 14 13 12 10 8 8 8 9 8 7 7
20 19 19 22 22 20 18 17 16 14 14 14 15 18 18 16 17 17 18 21 22 22 22 21 20 18 16 16 16 15 14 14 13 12 11 11 11 11 11 12 13 13 13 12 12 12 12 11 10 13 14 14 14 12 10 10 11 10 10 9 8 7
19 19 19 21 21 20 19 18 18 18 18 18 17 18 19 19 18 18 19 22 23 22 21 21 20 19 16 16 16 15 14 12 12 12 11 10 10 10 10 11 12 13 13 13 13 13 14 12 10 10 12 14 13 10 11 12 12 10 9 10 9 8
21 21 20 21 21 20 20 20 21 21 21 22 21 20 21 21 21 20 20 22 23 22 21 21 19 18 17 15 15 14 13 12 12 12 10 9 10 10 10 11 12 13 13 12 12 12 13 13 11 10 10 11 9 8 13 15 13 11 9 9 9 9
22 22 22 22 22 20 20 21 21 20 21 21 20 20 20 20 20 19 20 23 23 21 21 21 19 17 15 14 14 14 12 11 11 10 10 11 10 10 11 12 13 14 13 13 12 11 13 13 13 12 11 9 7 7 12 15 14 13 13 11 9 9
20 22 22 21 22 21 20 20 19 18 19 19 17 18 19 19 19 19 20 23 23 22 21 19 17 16 14 14 14 13 11 11 11 11 11 11 10 11 13 14 14 14 14 13 12 11 11 12 14 13 12 11 9 9 12 12 12 12 15 16 13 10
20 21 22 21 22 22 20 19 18 18 18 18 17 18 19 19 21 21 19 22 23 22 20 17 16 15 13 13 13 12 12 12 12 12 12 11 11 12 13 13 13 13 13 13 12 11 10 12 14 14 13 12 11 13 14 13 12 11 13 16 15 14
21 20 21 22 23 22 21 20 19 18 18 17 18 20 20 20 23 23 21 22 22 21 20 17 16 15 12 12 12 12 12 13 13 13 13 12 12 13 13 12 13 12 12 12 12 12 11 11 13 12 12 12 12 14 17 16 15 14 13 13 14 16
21 20 21 22 22 21 21 21 19 19 20 19 20 22 22 22 24 24 23 23 22 21 19 17 16 15 14 13 12 13 13 13 13 13 12 11 12 13 12 12 12 12 11 12 13 13 12 11 11 11 11 11 10 12 16 17 16 15 15 14 15 18
21 20 22 21 21 21 21 20 20 21 21 20 21 22 23 23 24 24 23 22 21 20 18 17 17 16 16 14 13 14 13 11 12 11 9 10 10 10 10 11 12 11 11 12 12 13 13 12 11 10 10 10 10 12 14 14 14 14 14 13 15 19
20 19 21 20 20 20 19 18 19 20 21 20 20 21 22 23 22 22 22 21 20 19 19 19 18 17 16 14 13 13 13 13 12 10 9 10 10 9 8 10 11 11 11 11 12 12 12 12 11 10 10 10 11 12 13 13 13 14 14 12 15 18
18 18 18 19 19 18 17 17 17 17 19 19 19 20 22 21 20 20 20 19 19 19 19 20 18 17 15 13 13 13 15 16 14 12 12 10 10 10 9 9 12 13 12 11 11 11 11 11 11 10 11 11 11 13 13 12 12 14 15 14 16 19
16 17 17 18 17 16 16 15 15 16 18 19 19 19 20 19 18 19 18 18 19 19 18 17 17 16 15 15 16 15 16 18 16 15 15 13 11 11 9 7 9 12 12 11 11 11 10 11 10 9 10 9 11 13 12 11 11 13 14 14 15 18
16 17 16 15 15 15 15 13 14 16 17 18 20 20 20 20 20 19 19 19 18 17 16 16 16 16 16 17 18 18 17 18 19 18 17 16 14 13 11 7 7 10 11 10 10 10 10 10 9 9 8 7 10 12 11 11 12 13 14 14 16 18
16 18 16 14 16 17 16 14 13 16 17 17 18 20 22 23 22 21 19 18 18 17 17 17 17 18 18 17 17 19 18 18 19 18 17 16 15 15 12 8 7 10 11 10 10 9 9 9 9 9 9 9 10 11 11 12 13 14 15 15 16 17
Wind_Direction
167 166 167 165 162 159 159 160 160 163 165 169 175 179 179 172 169 168 168 170 173 175 178 169 153 152 163 176 183 192 195 174 166 173 173 172 169 165 159 153 148 141 131 124 129 136 134 126 117 115 114 116 123 141 114 338 329 2 22 58 67 63
170 168 168 164 162 160 159 160 160 160 161 166 171 173 170 168 169 170 171 175 179 179 179 170 155 154 163 176 184 192 194 173 171 179 177 175 172 169 165 159 156 149 138 131 130 133 133 124 116 119 120 122 136 168 151 325 314 19 29 37 50 63
173 169 168 165 162 159 161 162 160 160 160 165 168 168 167 168 171 173 176 176 176 175 171 160 152 156 160 174 185 195 196 177 177 183 182 179 175 173 170 164 162 156 147 139 136 138 140 129 125 131 126 128 144 167 339 302 292 353 12 13 20 42
176 172 169 165 161 160 161 162 162 162 164 165 165 166 168 170 172 176 178 174 173 176 172 158 158 166 163 169 181 194 197 184 184 185 185 183 179 178 174 169 167 161 153 146 143 146 145 141 149 145 129 134 151 176 258 282 285 317 360 356 340 343
180 175 171 165 162 161 161 163 164 165 166 167 166 167 169 171 173 178 180 174 176 186 184 170 172 176 168 170 178 185 185 184 190 186 187 187 183 182 178 172 169 164 154 146 149 148 138 148 173 151 134 142 162 199 233 254 265 286 330 332 310 287
184 178 172 168 165 164 163 165 166 168 170 169 169 169 170 173 173 177 181 178 183 191 190 182 183 184 175 176 178 175 171 179 193 191 188 190 188 185 182 178 172 166 156 148 154 149 124 181 189 160 162 183 188 220 243 246 255 287 320 320 303 295
187 180 174 172 169 166 166 169 169 172 172 171 172 171 172 174 175 177 181 182 188 192 192 188 189 192 186 180 175 171 174 182 200 200 192 191 192 189 184 180 177 171 165 163 159 150 157 235 201 171 193 218 218 232 245 250 260 285 307 312 294 299
189 183 178 175 173 169 170 173 173 173 173 173 174 174 174 174 177 181 184 186 190 193 194 193 192 195 190 180 176 166 152 127 165 201 197 191 190 191 186 178 179 177 176 173 152 150 184 222 215 197 204 214 231 235 244 250 254 267 269 272 259 246
191 186 182 178 175 173 174 175 174 174 175 176 177 176 176 177 180 185 187 188 190 194 194 194 194 194 189 180 169 152 139 100 85 172 186 185 184 186 183 180 181 176 169 158 145 162 186 212 227 235 235 230 229 236 250 249 238 249 251 243 238 198
193 187 182 179 177 176 178 176 174 175 175 178 182 180 179 181 184 187 188 188 190 195 194 192 192 189 183 174 159 149 157 153 90 146 180 180 174 173 182 187 184 163 149 158 169 181 187 208 229 241 241 227 203 215 247 242 230 231 230 223 217 165
194 187 182 180 179 179 179 178 176 175 172 176 187 185 182 186 189 189 186 188 192 194 195 192 186 179 174 172 167 166 176 181 171 191 233 187 173 176 186 190 183 166 165 179 187 189 194 212 225 225 220 209 197 196 213 232 231 219 217 223 196 122
195 189 185 184 182 181 183 183 179 178 175 178 190 188 185 191 192 191 187 190 195 195 197 194 187 180 177 177 175 173 176 172 168 180 206 204 202 197 191 190 187 186 184 185 189 194 201 213 219 212 176 190 203 211 216 224 229 215 218 228 189 137
195 193 190 188 186 185 187 187 184 186 182 182 191 190 191 194 190 191 191 193 197 198 197 194 192 187 180 177 174 174 180 179 181 193 195 194 205 202 194 195 187 187 185 185 195 199 203 209 217 218 192 181 200 208 213 213 211 204 198 194 189 169
196 196 193 192 191 189 191 191 189 188 184 186 192 191 195 195 191 194 193 195 199 201 201 196 194 192 184 180 176 176 184 184 183 197 200 194 201 196 189 188 182 185 180 185 206 205 204 210 209 202 184 185 191 201 210 207 201 197 180 165 178 171
198 196 194 196 194 193 196 197 193 185 182 190 192 193 199 197 197 199 199 202 202 204 206 201 200 199 188 184 180 178 187 187 178 188 194 193 193 181 180 186 194 195 176 182 204 198 186 188 191 180 169 177 182 192 198 194 196 196 180 169 174 168
199 196 196 198 195 199 206 207 199 183 181 193 192 196 204 203 205 207 207 206 205 208 209 203 204 201 191 186 183 180 185 186 185 188 182 183 181 177 181 185 203 208 181 185 195 183 175 174 173 159 153 167 173 180 184 184 191 190 182 185 184 178
198 195 196 198 200 209 214 215 205 183 182 195 191 197 204 208 213 212 211 208 208 211 208 203 202 199 194 193 190 186 188 188 189 188 184 186 185 189 191 179 198 215 194 188 188 179 179 170 158 146 148 160 163 170 181 185 187 187 189 197 199 192
197 193 196 198 204 212 212 217 209 186 186 195 191 199 205 210 214 212 210 209 209 209 205 204 203 202 202 201 204 198 196 196 192 189 190 192 190 197 200 184 192 209 195 188 192 191 178 162 154 150 155 165 166 169 177 184 190 193 194 192 190 187
200 196 199 202 206 207 202 210 205 180 185 195 195 202 204 210 214 211 209 208 208 205 201 203 204 206 207 208 211 206 201 201 194 192 193 195 196 199 202 195 196 201 192 188 196 194 168 156 153 150 161 173 173 170 170 177 188 195 192 185 183 189
201 201 204 206 209 205 198 207 207 181 184 195 203 204 199 208 215 212 212 210 207 204 200 202 204 207 209 209 209 205 202 200 196 195 195 197 202 205 205 205 205 199 190 184 186 185 167 159 153 147 158 169 170 165 163 172 179 187 191 188 188 202
201 205 209 208 210 207 201 207 212 197 192 195 203 206 204 207 212 213 215 213 208 204 201 201 202 205 205 205 204 200 197 199 201 201 202 201 202 210 207 199 203 193 183 179 173 176 173 167 159 150 155 159 163 162 159 167 172 183 197 197 195 204
206 207 212 211 209 209 206 208 209 207 208 200 197 205 211 212 212 214 213 211 207 203 201 200 201 203 203 206 203 196 195 200 206 207 209 208 205 210 201 195 205 192 178 178 168 167 172 173 171 166 159 154 155 158 159 169 171 180 194 196 197 195
209 208 210 211 210 211 209 209 208 212 215 201 194 204 215 215 211 211 206 202 201 199 197 197 198 199 200 206 202 197 199 203 207 209 211 211 208 207 201 202 206 190 178 181 171 167 174 182 181 172 163 156 156 155 152 166 171 175 182 180 186 185
208 210 209 208 210 214 213 212 210 210 208 200 199 203 207 208 206 205 199 194 194 193 194 193 194 194 194 199 199 197 201 204 207 211 211 210 206 200 202 207 198 185 184 184 178 177 179 187 185 172 162 154 153 153 152 164 165 162 170 173 175 173
207 212 212 210 210 212 214 214 208 203 198 196 199 199 199 200 199 197 193 189 188 188 190 191 193 196 195 196 198 197 200 206 209 207 206 205 201 195 199 197 181 178 186 185 183 183 179 181 186 181 168 153 151 162 169 170 163 152 162 172 169 165
207 211 213 214 210 206 208 208 205 201 196 193 194 195 197 197 192 189 187 184 183 184 187 190 191 194 195 195 198 200 203 208 206 201 196 192 195 196 193 184 176 181 188 188 188 185 181 182 181 181 180 170 167 178 178 172 165 152 149 161 161 159
209 212 211 211 207 204 204 203 204 207 205 199 193 191 191 190 185 182 182 181 181 182 185 187 187 188 189 190 196 202 205 205 198 194 192 189 189 188 185 185 186 187 188 192 194 187 185 186 182 180 186 188 184 182 178 175 174 163 149 151 157 156
211 211 212 210 206 206 205 203 204 208 211 205 197 190 183 180 180 178 181 183 182 181 181 182 183 184 185 187 196 202 200 197 193 188 186 185 183 180 184 190 191 190 192 199 200 190 187 188 185 185 183 182 178 171 173 176 181 180 164 156 157 161
212 212 215 211 205 206 208 206 203 203 208 205 199 191 180 177 179 177 178 182 181 179 177 176 178 182 184 187 192 192 190 190 188 180 177 181 185 187 191 193 194 195 195 199 201 195 194 193 190 191 186 180 175 170 172 171 173 188 181 163 161 167
213 212 216 216 208 204 206 207 202 198 202 200 195 188 180 177 179 177 175 178 178 175 175 175 175 175 175 177 179 180 182 185 184 179 177 180 185 191 197 197 197 199 196 195 198 197 199 197 192 193 191 183 177 174 175 174 173 182 186 175 171 171
214 210 214 219 213 204 203 204 200 197 198 196 191 188 185 180 179 179 176 175 175 174 176 175 170 167 164 165 167 172 178 179 176 175 175 179 184 190 196 195 196 201 202 197 195 197 201 199 193 192 189 184 182 180 182 184 184 184 184 180 174 168
214 209 211 219 216 207 204 203 198 194 195 195 190 187 187 183 178 178 177 176 177 176 174 169 164 163 162 161 158 164 171 166 163 165 167 172 173 180 189 188 190 196 198 193 193 199 202 200 202 198 187 183 184 185 189 191 190 190 189 184 174 165
213 210 212 216 213 206 203 200 196 191 189 191 189 184 185 182 177 176 177 179 178 173 168 166 164 161 159 158 156 159 159 155 160 160 160 164 157 160 180 184 185 186 182 181 185 192 196 199 207 204 190 185 188 187 186 185 185 188 188 182 174 164
213 213 214 214 210 203 202 199 193 192 189 188 187 183 181 180 177 176 177 179 177 172 170 168 163 157 156 158 157 156 153 156 163 161 163 173 166 166 182 186 185 183 176 175 177 178 185 192 198 200 194 189 191 191 184 179 181 186 185 180 177 168
215 219 222 221 213 201 203 200 190 191 192 187 184 179 176 177 177 175 173 174 174 173 171 165 160 160 162 161 159 159 161 164 167 167 171 174 165 167 180 186 182 180 176 175 174 173 177 185 188 192 195 191 189 189 185 182 181 185 189 185 180 173
223 222 221 215 203 195 201 199 188 191 190 182 180 177 173 171 171 169 168 169 167 166 165 161 162 166 166 164 163 167 174 176 175 178 182 177 169 174 184 193 183 174 175 172 170 172 175 180 184 183 183 182 182 182 182 183 178 179 186 184 177 176
217 208 198 190 187 189 194 189 186 192 188 181 179 175 170 166 164 164 165 164 160 158 161 162 163 164 166 169 173 179 185 186 185 188 189 183 181 185 187 191 177 164 165 163 162 167 170 174 176 172 171 172 175 179 182 177 170 172 179 181 178 178
Height
1515 1517 1518 1518 1517 1516 1516 1518 1521 1524 1528 1531 1534 1536 1538 1540 1541 1543 1545 1547 1549 1550 1551 1552 1553 1553 1554 1554 1555 1557 1558 1560 1561 1561 1562 1563 1564 1565 1567 1568 1569 1571 1571 1572 1573 1574 1575 1575 1575 1576 1576 1575 1574 1573 1573 1573 1574 1575 1574 1574 1574 1574
1515 1517 1518 1519 1520 1520 1520 1521 1522 1524 1527 1530 1532 1535 1537 1539 1541 1543 1545 1547 1549 1550 1551 1552 1553 1553 1554 1554 1555 1556 1558 1560 1561 1561 1562 1563 1564 1566 1567 1568 1570 1571 1572 1573 1574 1575 1575 1575 1576 1576 1575 1575 1573 1572 1573 1573 1574 1575 1575 1575 1575 1575
1516 1517 1518 1519 1520 1521 1523 1524 1525 1526 1527 1529 1531 1533 1536 1538 1540 1543 1545 1547 1549 1550 1551 1552 1553 1553 1554 1555 1556 1556 1558 1560 1561 1561 1562 1563 1564 1566 1567 1568 1570 1571 1572 1573 1574 1575 1575 1576 1575 1575 1576 1575 1574 1573 1573 1573 1574 1575 1575 1575 1575 1575
1516 1517 1518 1520 1521 1522 1524 1525 1527 1528 1528 1529 1530 1532 1534 1536 1539 1542 1544 1546 1548 1549 1551 1552 1553 1553 1554 1555 1556 1557 1558 1559 1561 1562 1562 1563 1564 1565 1567 1568 1570 1571 1572 1573 1574 1575 1575 1576 1575 1576 1577 1576 1574 1574 1573 1573 1574 1576 1576 1575 1575 1575
1517 1518 1519 1521 1522 1523 1524 1526 1527 1528 1528 1529 1529 1530 1532 1534 1536 1540 1543 1545 1547 1549 1550 1551 1552 1553 1554 1555 1556 1557 1558 1559 1561 1561 1563 1563 1564 1565 1567 1568 1570 1572 1573 1574 1575 1575 1575 1576 1576 1577 1577 1576 1575 1574 1573 1573 1575 1576 1576 1576 1575 1575
1517 1518 1520 1522 1522 1523 1524 1526 1527 1528 1528 1528 1529 1530 1531 1533 1534 1537 1541 1544 1547 1548 1550 1551 1552 1553 1555 1556 1557 1558 1559 1559 1560 1561 1562 1563 1564 1565 1567 1568 1570 1572 1573 1574 1574 1574 1575 1575 1576 1577 1577 1577 1576 1574 1573 1574 1575 1577 1577 1576 1576 1576
1517 1519 1520 1522 1522 1523 1525 1526 1526 1527 1528 1528 1529 1530 1531 1533 1534 1536 1540 1543 1545 1547 1549 1551 1552 1553 1555 1556 1557 1558 1559 1560 1560 1561 1562 1563 1564 1565 1567 1568 1570 1571 1572 1573 1574 1574 1575 1575 1575 1576 1576 1576 1576 1575 1574 1574 1575 1577 1577 1577 1576 1576
1517 1518 1519 1521 1522 1523 1524 1525 1526 1527 1528 1528 1529 1530 1531 1533 1534 1537 1539 1542 1545 1547 1549 1550 1551 1553 1554 1556 1557 1558 1559 1560 1560 1561 1562 1563 1564 1565 1567 1568 1569 1571 1572 1573 1574 1574 1575 1574 1575 1576 1576 1576 1575 1574 1574 1574 1575 1576 1577 1576 1577 1577
1516 1517 1518 1519 1521 1522 1523 1524 1525 1526 1527 1528 1529 1530 1531 1532 1534 1536 1539 1542 1544 1546 1548 1549 1551 1552 1554 1555 1557 1559 1560 1560 1561 1561 1562 1564 1564 1565 1567 1568 1569 1570 1571 1573 1573 1574 1574 1574 1574 1575 1575 1575 1575 1573 1573 1574 1575 1576 1576 1576 1577 1577
1516 1517 1518 1520 1521 1522 1523 1524 1525 1527 1528 1529 1529 1530 1531 1532 1534 1536 1538 1541 1544 1546 1547 1548 1550 1551 1552 1554 1556 1558 1559 1560 1562 1563 1563 1564 1565 1565 1566 1567 1568 1569 1571 1572 1572 1573 1573 1574 1574 1575 1575 1575 1574 1573 1573 1574 1575 1576 1576 1576 1577 1577
1516 1517 1519 1520 1521 1522 1523 1524 1525 1526 1528 1529 1530 1530 1531 1532 1534 1536 1538 1541 1543 1545 1546 1548 1548 1550 1551 1553 1554 1555 1557 1558 1560 1563 1564 1565 1565 1565 1567 1567 1568 1570 1571 1571 1571 1572 1573 1574 1574 1574 1574 1574 1574 1573 1573 1574 1574 1575 1576 1576 1577 1577
1516 1518 1519 1521 1521 1522 1523 1524 1524 1526 1528 1529 1530 1530 1532 1533 1535 1536 1539 1541 1543 1544 1546 1547 1547 1548 1550 1552 1553 1555 1556 1557 1559 1561 1564 1565 1565 1566 1567 1567 1569 1570 1570 1570 1571 1572 1573 1573 1574 1574 1574 1574 1574 1573 1573 1574 1574 1575 1575 1576 1577 1577
1515 1518 1520 1521 1521 1522 1523 1524 1525 1525 1527 1529 1530 1531 1532 1534 1535 1537 1539 1540 1542 1544 1545 1546 1546 1548 1549 1551 1552 1555 1557 1557 1559 1560 1563 1565 1566 1566 1567 1567 1569 1569 1569 1570 1571 1571 1572 1573 1573 1573 1574 1574 1573 1573 1573 1574 1574 1575 1575 1576 1576 1577
1515 1518 1520 1521 1522 1523 1523 1524 1524 1525 1527 1529 1531 1531 1532 1533 1535 1537 1538 1540 1541 1543 1544 1545 1546 1547 1549 1550 1552 1554 1556 1558 1559 1561 1563 1565 1566 1566 1566 1567 1568 1567 1569 1570 1569 1570 1572 1572 1573 1573 1574 1574 1573 1573 1573 1574 1575 1575 1575 1575 1576 1576
1517 1519 1521 1522 1523 1524 1524 1525 1524 1525 1529 1530 1531 1532 1532 1533 1535 1536 1537 1539 1540 1542 1544 1545 1546 1547 1548 1549 1551 1553 1555 1557 1559 1561 1564 1565 1565 1566 1566 1567 1566 1566 1569 1570 1568 1569 1571 1572 1572 1573 1573 1574 1574 1574 1574 1574 1575 1575 1575 1575 1575 1576
1518 1520 1522 1523 1525 1526 1526 1526 1525 1528 1531 1531 1531 1531 1532 1533 1534 1536 1536 1537 1539 1541 1542 1544 1545 1546 1547 1549 1550 1552 1554 1557 1559 1561 1563 1564 1565 1565 1565 1566 1565 1564 1568 1569 1568 1569 1570 1572 1572 1572 1573 1573 1574 1574 1574 1574 1574 1575 1575 1575 1576 1576
1519 1521 1523 1525 1527 1527 1527 1528 1528 1531 1532 1531 1531 1531 1532 1533 1534 1535 1535 1536 1538 1539 1541 1542 1544 1545 1546 1548 1550 1552 1554 1556 1558 1560 1562 1563 1564 1564 1564 1565 1564 1564 1567 1569 1568 1569 1570 1571 1572 1572 1573 1573 1573 1573 1573 1574 1574 1575 1575 1575 1576 1576
1520 1523 1524 1525 1526 1527 1529 1530 1531 1534 1533 1530 1531 1531 1532 1532 1533 1534 1534 1536 1537 1538 1540 1541 1542 1544 1545 1548 1549 1551 1553 1556 1558 1559 1560 1561 1563 1564 1563 1564 1565 1566 1567 1569 1568 1568 1569 1570 1571 1572 1572 1573 1573 1573 1573 1574 1574 1575 1575 1576 1576 1576
1522 1523 1522 1522 1524 1526 1530 1531 1532 1536 1534 1531 1531 1531 1531 1531 1532 1533 1534 1535 1536 1537 1538 1539 1541 1542 1544 1547 1548 1550 1552 1555 1556 1558 1559 1560 1561 1563 1564 1564 1566 1568 1569 1569 1569 1568 1568 1569 1571 1572 1572 1572 1573 1572 1573 1574 1574 1574 1575 1576 1576 1576
1521 1521 1520 1521 1522 1525 1529 1530 1532 1535 1533 1531 1530 1530 1530 1531 1531 1532 1533 1534 1535 1536 1537 1538 1540 1541 1543 1545 1547 1549 1551 1553 1555 1556 1558 1559 1560 1561 1563 1564 1565 1569 1569 1568 1568 1568 1568 1568 1570 1572 1573 1572 1572 1572 1573 1573 1574 1574 1575 1575 1576 1576
1520 1520 1520 1521 1521 1523 1526 1527 1529 1530 1530 1529 1528 1527 1528 1529 1530 1531 1531 1532 1533 1535 1536 1537 1539 1541 1542 1544 1546 1548 1550 1552 1554 1555 1557 1558 1559 1560 1562 1563 1565 1569 1568 1566 1568 1568 1568 1568 1569 1571 1573 1573 1573 1572 1573 1573 1574 1575 1575 1575 1576 1576
1518 1520 1521 1521 1520 1521 1523 1524 1525 1525 1526 1526 1526 1525 1526 1527 1528 1528 1529 1530 1532 1533 1535 1537 1538 1540 1542 1543 1545 1547 1549 1551 1553 1554 1555 1556 1558 1560 1562 1562 1564 1567 1567 1565 1566 1567 1567 1568 1569 1571 1572 1572 1572 1572 1572 1573 1574 1575 1575 1575 1575 1575
1515 1517 1519 1520 1519 1520 1522 1523 1524 1524 1524 1525 1525 1525 1525 1526 1526 1526 1527 1529 1530 1532 1534 1536 1537 1539 1541 1542 1544 1546 1548 1550 1552 1553 1554 1555 1557 1558 1560 1561 1562 1564 1565 1565 1565 1566 1567 1568 1569 1570 1571 1571 1571 1571 1572 1573 1574 1574 1575 1575 1575 1575
1512 1515 1517 1518 1519 1521 1522 1523 1523 1523 1523 1524 1524 1524 1524 1524 1524 1525 1526 1527 1529 1531 1533 1535 1536 1538 1540 1542 1544 1546 1548 1549 1551 1552 1553 1554 1555 1557 1558 1560 1561 1562 1563 1564 1565 1566 1567 1568 1568 1569 1570 1570 1571 1571 1571 1572 1573 1574 1575 1575 1575 1576
1510 1512 1514 1516 1518 1520 1521 1522 1521 1521 1521 1521 1522 1522 1522 1522 1522 1523 1524 1526 1528 1530 1532 1534 1535 1537 1539 1541 1543 1545 1547 1549 1550 1551 1552 1553 1555 1556 1558 1559 1560 1561 1562 1564 1564 1565 1566 1567 1568 1568 1569 1568 1569 1570 1570 1571 1572 1573 1575 1575 1575 1576
1508 1510 1511 1513 1515 1517 1518 1520 1519 1518 1518 1518 1519 1519 1519 1520 1521 1522 1523 1525 1527 1529 1531 1532 1534 1537 1538 1540 1542 1544 1546 1547 1548 1550 1551 1552 1554 1555 1556 1557 1559 1560 1562 1563 1563 1564 1564 1565 1566 1567 1568 1567 1567 1567 1568 1569 1571 1573 1574 1575 1576 1576
1506 1507 1509 1510 1512 1514 1516 1517 1518 1518 1518 1518 1519 1519 1519 1521 1521 1522 1523 1525 1526 1528 1530 1532 1534 1536 1538 1539 1541 1543 1545 1546 1547 1549 1550 1551 1553 1554 1556 1557 1558 1560 1561 1562 1562 1563 1563 1564 1565 1565 1566 1566 1566 1566 1567 1568 1569 1571 1573 1575 1576 1576
1503 1505 1506 1507 1510 1512 1514 1516 1517 1518 1519 1520 1520 1520 1521 1522 1522 1523 1523 1524 1526 1528 1530 1532 1534 1535 1537 1539 1540 1542 1544 1545 1546 1548 1549 1550 1552 1553 1555 1556 1557 1559 1560 1561 1562 1562 1563 1563 1563 1564 1564 1565 1565 1566 1567 1568 1569 1570 1571 1572 1575 1575
1501 1503 1504 1505 1507 1510 1512 1514 1516 1518 1519 1520 1521 1521 1521 1522 1523 1523 1524 1525 1527 1528 1530 1532 1533 1535 1536 1538 1540 1541 1543 1544 1545 1547 1548 1550 1551 1553 1554 1556 1557 1558 1559 1560 1561 1562 1562 1562 1563 1563 1563 1564 1564 1565 1567 1568 1570 1571 1571 1571 1573 1574
1498 1501 1503 1504 1506 1509 1511 1513 1515 1517 1518 1519 1521 1521 1522 1522 1523 1524 1524 1526 1527 1529 1530 1532 1533 1535 1536 1538 1539 1541 1542 1544 1545 1546 1548 1549 1551 1552 1554 1555 1556 1558 1559 1560 1561 1561 1562 1562 1563 1563 1563 1563 1564 1565 1566 1567 1569 1570 1571 1572 1572 1573
1496 1500 1502 1503 1505 1507 1509 1511 1513 1515 1516 1518 1520 1521 1522 1522 1523 1524 1525 1526 1527 1529 1530 1532 1533 1534 1536 1538 1539 1541 1543 1544 1546 1546 1548 1549 1551 1552 1553 1555 1556 1557 1559 1560 1560 1561 1561 1562 1562 1562 1562 1563 1563 1564 1565 1566 1568 1569 1570 1571 1572 1573
1495 1499 1502 1503 1505 1506 1508 1510 1512 1514 1515 1517 1519 1521 1522 1522 1523 1523 1525 1526 1527 1529 1530 1532 1533 1534 1536 1537 1539 1541 1542 1544 1545 1546 1548 1550 1551 1552 1554 1555 1556 1557 1558 1559 1560 1560 1561 1562 1562 1562 1562 1563 1563 1564 1565 1566 1568 1569 1570 1571 1571 1572
1496 1498 1501 1503 1505 1507 1509 1511 1512 1514 1515 1517 1519 1520 1522 1523 1524 1524 1525 1526 1527 1529 1530 1531 1533 1534 1535 1537 1538 1540 1542 1544 1545 1547 1549 1550 1551 1553 1554 1555 1556 1557 1557 1558 1559 1560 1560 1561 1561 1561 1562 1562 1563 1564 1565 1566 1568 1569 1570 1571 1571 1572
1497 1497 1500 1503 1506 1509 1511 1512 1514 1515 1516 1518 1519 1520 1522 1524 1525 1526 1526 1527 1528 1530 1531 1532 1532 1533 1534 1536 1538 1540 1542 1544 1546 1547 1549 1550 1551 1553 1554 1555 1556 1556 1557 1558 1558 1559 1560 1560 1561 1561 1561 1562 1563 1564 1565 1566 1567 1568 1569 1570 1571 1571
1497 1496 1498 1502 1507 1511 1513 1514 1516 1517 1517 1518 1519 1520 1522 1524 1525 1526 1527 1528 1529 1530 1531 1532 1532 1533 1535 1536 1538 1540 1542 1544 1546 1548 1549 1550 1552 1553 1554 1555 1555 1556 1557 1557 1558 1558 1559 1560 1560 1560 1561 1562 1562 1563 1565 1566 1567 1568 1569 1570 1570 1571
1496 1495 1497 1501 1507 1512 1514 1515 1517 1519 1519 1518 1518 1519 1521 1522 1524 1526 1528 1529 1530 1530 1531 1532 1532 1533 1534 1536 1538 1539 1542 1544 1546 1548 1549 1551 1552 1553 1554 1555 1555 1556 1556 1557 1557 1558 1558 1559 1559 1560 1560 1561 1562 1563 1565 1566 1567 1568 1569 1570 1570 1571
1495 1494 1497 1501 1504 1508 1511 1513 1515 1518 1520 1519 1518 1519 1519 1520 1523 1525 1527 1528 1529 1530 1530 1531 1532 1533 1534 1536 1538 1540 1541 1544 1546 1548 1549 1551 1552 1552 1554 1555 1555 1555 1556 1556 1557 1557 1558 1558 1558 1559 1560 1561 1562 1564 1565 1566 1567 1568 1569 1570 1571 1571